Regional Weather Roundup
Issued by NWS

Home | Current Version | Previous Version | Graphics & Text | Print | Product List | Glossary On
Versions: 1 2 3 4 5 6 7 8 9 10 11 12 13 14 15 16 17 18 19 20 21 22 23 24 25 26 27 28 29 30 31 32 33 34 35 36 37 38 39 40 41 42 43 44 45 46 47 48 49 50
000
ASUS43 KLOT 010306
RWRIL

ILLINOIS REGIONAL WEATHER ROUNDUP
NATIONAL WEATHER SERVICE CHICAGO/ROMEOVILLE IL
1000 PM CDT TUE SEP 30 2014

NOTE: "FAIR" INDICATES FEW OR NO CLOUDS BELOW 12,000 FEET WITH NO
SIGNIFICANT WEATHER AND/OR OBSTRUCTIONS TO VISIBILITY.

* THESE STATIONS ARE NOT UNDER NWS QUALITY CONTROL. THEY ALSO MAY NOT
  REPORT WEATHER SUCH AS PRECIPITATION OR FOG.

ILZ001-002-007-009-015-016-024-010400-
NORTHWEST ILLINOIS

CITY           SKY/WX    TMP DP  RH WIND       PRES   REMARKS
MOLINE         NOT AVBL
SAVANNA*       PTCLDY    52  45  76 E7        30.00F
$$

ILZ003-004-008-010-011-017-018-010400-
NORTH CENTRAL ILLINOIS

CITY           SKY/WX    TMP DP  RH WIND       PRES   REMARKS
ROCKFORD       MOCLDY    51  44  77 E9        30.05S
FREEPORT*      PTCLDY    46  44  90 E6        30.03S
ROCHELLE*      CLEAR     48  45  89 E6        30.03S
DE KALB*       CLOUDY    51  45  80 E8        30.04S
PERU*          CLEAR     52  47  81 E9        30.01S
$$

ILZ005-006-012>014-019>023-010400-
NORTHEAST ILLINOIS

CITY           SKY/WX    TMP DP  RH WIND       PRES   REMARKS
CHICAGO-OHARE  CLOUDY    54  49  83 N7        30.02S
CHICAGO-MIDWAY CLOUDY    58  48  69 E12       30.02S
AURORA         CLOUDY    54  47  77 NE6       30.03S
LANSING*       CLOUDY    55  46  72 NE7       30.03R
JOLIET*        CLOUDY    54  49  84 NE3       30.02S
WAUKEGAN       CLOUDY    52  50  93 CALM      30.03S
DUPAGE AIRPORT CLOUDY    54  48  80 N5        30.02S
KANKAKEE*      CLOUDY    53  47  81 NE6       30.02S
WHEELING       CLOUDY    55  50  83 N3        30.03S
MORRIS*        CLOUDY    55  51  87 E3        30.01S
ROMEOVILLE*    CLOUDY    54  49  85 NE8       30.02S
NORTHERLY ISL    N/A     56  46  69 NE7         N/A
$$

LMZ740>746-010400-
SOUTHERN LAKE MICHIGAN

STATION/POSITION SKY/WX   TEMP    WIND        PRES    VSBY  WAVE
                          AIR SEA DIR/SP/G                  HT/PER
                          (F)     (DEG/KT/KT) (MB)    (MI)  (FT/S)
SOUTHERN BUOY              56 61   60/  8/ 10 1017.4R         3/ 6
WAUKEGAN HARBOR            55      80/  4/  8   N/A
HARRISON CRIB              56      30/  8/ 11   N/A
BURNHAM HARBOR             56      40/  5/ 14   N/A
CALUMET HARBOR             57      50/  8/ 11 1015.6S
MICHIGAN CITY              53      80/  6/  8   N/A
MICHIGAN CITY 6N           54 64  120/  8/ 12   N/A           3/ 2
ST. JOSEPH                 56 62   80/  6/  8   N/A           2/ 2
$$

ILZ025>027-034>036-040-047-049-050-058-095>099-010400-
WEST-CENTRAL ILLINOIS

CITY           SKY/WX    TMP DP  RH WIND       PRES   REMARKS
QUINCY         CLEAR     64  57  78 E8        29.90S
GALESBURG*     CLEAR     56  49  75 E8        29.96R
MACOMB*        CLEAR     57  53  88 E5        29.96S
JACKSONVILLE*  CLEAR     63  57  81 E7        29.94R HAZE
PITTSFIELD*    CLEAR     64  58  83 E3        29.93R
$$

ILZ028>032-037-038-041>044-048-051>054-059>061-010400-
CENTRAL ILLINOIS

CITY           SKY/WX    TMP DP  RH WIND       PRES   REMARKS
PONTIAC        MOCLDY    54  48  82 E3        30.00F
BLOOMINGTON    CLEAR     54  49  83 E12         N/A
DECATUR        CLEAR     57  50  77 E10       29.97R
PEORIA         CLEAR     59  48  67 E13       29.98R
LACON*         CLEAR     53  47  79 E10       29.98S
LINCOLN*       CLEAR     59  49  70 E9G17     29.94S
SPRINGFIELD    CLEAR     63  52  67 E16       29.94S
TAYLORVILLE    CLEAR     63  52  67 E8        29.95R
$$

ILZ033-039-045-046-055>057-062-063-010400-
EAST-CENTRAL ILLINOIS

CITY           SKY/WX    TMP DP  RH WIND       PRES   REMARKS
DANVILLE*      CLEAR     51  47  86 NE5       29.98R
RANTOUL*       PTCLDY    55  47  74 NE9       30.01R
MATTOON        CLEAR     58  52  80 NE7       29.95S
PARIS*         CLEAR     57  51  80 NE5       29.99S
$$

ILZ079-100>102-010400-
SOUTHWEST ILLINOIS

CITY           SKY/WX    TMP DP  RH WIND       PRES   REMARKS
ALTON          CLEAR     66  59  77 E7        29.90S
BELLEVILLE     CLEAR     69  62  78 SE3       29.90R
CAHOKIA*       CLEAR     69  59  70 SE6       29.89S
SPARTA*        PTCLDY    65  58  76 E5        29.92R
$$

ILZ064>066-069>071-074>076-080>082-084>086-088>090-092>094-010400-
SOUTH-CENTRAL ILLINOIS

CITY           SKY/WX    TMP DP  RH WIND       PRES   REMARKS
CARBONDALE     CLEAR     61  57  87 CALM      29.90S
CAIRO*         PTCLDY    61  56  84 CALM      29.90S
EFFINGHAM*     RAIN      63  54  72 E6        29.95R
MARION         CLEAR     64  59  82 CALM      29.92R
CENTRALIA*     CLEAR     64  59  85 E5        29.92S
SALEM*         CLEAR     69  62  79 E5        29.93R
METROPOLIS*    CLEAR     59  57  92 CALM      29.90R
$$

ILZ067-068-072-073-078-083-087-091-010400-
SOUTHEAST ILLINOIS

CITY           SKY/WX    TMP DP  RH WIND       PRES   REMARKS
LAWRENCEVILLE  CLEAR     63  59  87 NE8       29.95R
FLORA*         CLEAR     65  59  80 NE6       29.94R
FAIRFIELD*     CLEAR     66  61  82 N3        29.92R
HARRISBURG*    CLEAR     63  61  94 CALM      29.93R
ROBINSON*      CLEAR     61  58  89 NE7       29.96S
CARMI*         CLEAR     63  59  88 CALM      29.92R
$$

ABBREVIATIONS USED IN REMARKS
   TC - TEMPERATURE IN CELSIUS
  WCI - WIND CHILL INDEX
   HX - HEAT INDEX
  VSB - VISIBILITY
$$




USA.gov is the U.S. government's official web portal to all federal, state and local government web resources and services.